Lapse_Rate
6.1 5.4 4.7 3.9 3.0 2.3 1.6 1.3 1.2 4.7 7.3 6.9 5.8 4.4 3.8 3.8 3.8 4.2 4.2 4.0 4.6 3.9
6.1 5.9 5.1 4.5 3.7 3.1 2.0 1.4 1.6 2.1 6.7 5.9 6.0 4.9 4.1 4.4 4.1 4.3 4.4 4.9 4.3 4.7
5.9 6.3 5.8 4.8 4.2 3.5 2.2 1.5 1.0 1.9 6.2 6.4 5.3 5.3 4.8 4.9 4.7 5.0 5.8 5.3 5.3 5.0
5.7 6.2 5.8 5.3 4.4 4.5 3.4 2.0 0.3 1.6 1.7 6.5 5.9 5.7 5.3 5.0 6.1 6.0 5.4 4.9 5.2 5.1
6.0 6.1 6.6 5.9 5.0 3.9 4.1 3.1 2.1 0.9 1.1 5.5 5.8 5.9 4.8 4.6 5.8 5.4 5.2 5.3 4.9 5.1
6.0 5.7 6.4 6.4 5.7 4.4 3.9 3.8 3.8 0.8 -0.1 0.8 5.4 5.8 5.1 5.1 5.3 5.1 4.8 4.6 4.7 5.0
6.4 6.0 6.7 6.6 6.2 5.3 4.5 4.4 3.7 1.0 0.6 -0.5 0.9 5.5 4.9 4.9 5.0 4.4 4.3 4.2 4.1 4.3
7.7 6.9 6.1 6.2 6.3 5.9 5.2 4.5 3.9 3.8 1.9 0.6 1.8 2.2 4.8 4.6 4.7 4.4 3.9 4.1 4.2 4.5
8.2 7.5 6.8 6.2 6.2 6.2 5.7 5.1 4.0 4.0 3.1 2.6 1.5 0.9 1.7 3.0 4.4 3.8 4.2 4.4 4.4 3.9
8.0 7.7 7.0 6.6 6.2 6.1 5.9 5.3 5.0 4.2 4.2 3.5 1.8 4.1 4.1 1.4 1.6 2.4 3.3 3.9 4.3 4.3
7.7 7.4 6.8 6.6 6.6 6.2 5.9 5.3 5.1 4.4 5.4 3.2 3.4 4.0 5.2 2.2 1.7 1.7 2.0 2.6 2.8 3.6
7.2 6.7 6.6 6.4 6.5 6.4 6.1 5.9 4.5 5.1 3.8 3.8 4.3 5.4 6.3 3.6 2.6 2.1 1.8 2.0 2.0 2.4
6.7 6.8 6.3 6.0 5.7 6.2 6.4 5.9 6.0 4.5 4.2 3.7 4.6 5.7 7.0 5.8 4.4 3.2 2.4 2.2 2.3 2.6
6.6 6.5 5.8 5.9 5.7 5.8 6.1 6.2 5.4 5.4 3.8 3.3 4.2 6.0 7.2 6.3 4.7 4.5 3.4 3.1 2.5 2.7
Wind_Speed
14 9 9 11 10 8 9 10 14 16 14 15 16 15 15 13 13 15 14 16 13 11
14 13 12 14 12 8 11 10 14 17 14 15 17 18 17 12 14 14 15 14 14 12
16 13 12 11 13 15 14 13 13 16 13 15 16 16 16 13 14 14 12 11 16 14
14 15 12 11 12 13 14 15 14 14 13 17 18 15 15 14 14 16 15 14 15 15
15 13 11 11 12 14 14 15 15 13 11 14 18 18 17 16 15 17 16 14 14 14
14 15 15 11 12 12 13 13 15 12 13 11 15 17 18 17 15 16 15 14 15 14
13 14 13 13 10 11 12 12 15 12 13 12 13 17 17 16 15 14 13 13 12 11
13 13 13 13 12 10 11 12 12 10 13 13 11 10 14 15 15 14 12 11 10 9
13 13 13 13 12 10 9 11 11 12 11 11 9 25 14 15 12 12 12 11 9 8
12 13 13 13 13 11 10 10 9 11 12 9 11 22 18 10 10 9 8 9 9 7
13 12 13 13 12 10 9 9 9 8 11 10 9 21 18 13 9 8 8 6 6 5
13 13 13 12 11 10 8 8 7 8 10 8 7 14 13 11 6 7 8 6 5 5
13 12 12 12 12 10 8 8 6 7 6 9 7 13 14 11 3 4 4 5 5 4
12 11 11 9 9 9 8 6 6 7 7 5 6 8 10 11 5 5 4 4 3 3
Wind_Direction
322 329 325 326 327 316 310 304 298 287 227 220 209 198 191 192 191 192 195 189 190 191
324 329 324 326 325 323 317 309 308 297 242 222 213 198 190 188 190 192 195 194 189 195
324 320 324 321 329 327 325 315 313 295 250 222 214 197 186 190 193 190 193 192 191 195
319 316 322 329 330 325 323 322 329 308 314 220 216 198 188 192 191 194 190 191 187 191
316 321 315 323 324 332 325 330 321 320 318 239 213 195 191 189 189 191 188 185 180 187
319 326 320 318 323 327 327 328 310 352 338 327 225 195 191 192 184 187 186 179 180 181
323 317 322 320 318 327 325 316 336 352 349 347 342 193 181 174 175 175 172 171 175 174
320 315 318 320 321 320 326 327 334 340 358 0 1 335 168 167 165 163 161 159 161 169
318 317 320 317 317 320 325 325 354 340 351 358 2 345 350 135 148 156 161 159 161 170
316 317 316 316 317 323 331 337 336 351 337 342 2 338 354 72 102 111 120 140 153 156
315 316 316 317 318 321 324 329 344 348 317 1 349 341 352 41 81 92 91 98 94 124
315 313 312 311 310 323 323 321 339 328 331 339 324 332 355 47 50 87 91 87 87 100
307 306 308 309 311 316 319 313 311 315 312 326 324 344 6 24 4 77 91 89 96 93
303 302 300 306 309 307 306 305 319 326 316 294 352 338 6 26 15 29 57 69 80 105